Leesburg, FL

9:42 AM EST on February 28, 2017 (GMT -0500)
Leesburg Regional

Weather History for KLEE - November, 2010

Change the Weather History Date:

Friday, November 12, 2010

  Actual Average Record
Temperature  
Mean Temperature 66 °F -  
Max Temperature 77 °F 75 °F 87 °F (2002)
Min Temperature 55 °F 53 °F 38 °F (1991)
Cooling Degree Days 1    
Growing Degree Days 16 (Base 50)    
Moisture  
Dew Point 54 °F    
Average Humidity 70    
Maximum Humidity 87    
Minimum Humidity 47    
Precipitation  
Precipitation 0.00 in - - ()
Sea Level Pressure  
Sea Level Pressure 30.22 in    
Wind  
Wind Speed 8 mph (NNE)    
Max Wind Speed 15 mph    
Max Gust Speed 21 mph    
Visibility 10 miles    
Events      
Averages and records for this station are not official NWS values.
T = Trace of Precipitation, MM = Missing Value Source: NWS Daily Summary

Daily Weather History Graph

Daily Weather History Graph

Search for Another Location

Airport or City:

Trip Planner

Search our weather history database for the weather conditions in past years. The results will help you decide how hot, cold, wet, or windy it might be!

Date:

Astronomy

Nov. 12, 2010 Rise Set
Actual Time 6:47 AM EST 5:34 PM EST
Civil Twilight 6:22 AM EST 5:59 PM EST
Nautical Twilight 5:54 AM EST 6:27 PM EST
Astronomical Twilight 5:26 AM EST 6:55 PM EST
Moon 12:19 PM EST (11/12) 11:35 PM EST (11/12)
Length of Visible Light 11h 36m
Length of Day
10h 46m
Waxing Crescent, 41% of the Moon is Illuminated
Nov 12
Waxing Crescent
Nov 13
First Quarter
Nov 21
Full
Nov 28
Last Quarter
Dec 5
New

Hourly Weather History & Observations

Time (EST) Temp. Dew Point Humidity Pressure Visibility Wind Dir Wind Speed Gust Speed Precip Events Conditions
12:53 AM 60.1 °F 55.0 °F 83% 30.24 in 10.0 mi North 6.9 mph - N/A   Clear
1:53 AM 59.0 °F 54.0 °F 83% 30.23 in 10.0 mi NNE 6.9 mph - N/A   Clear
2:53 AM 57.9 °F 53.1 °F 84% 30.22 in 10.0 mi NNE 5.8 mph - N/A   Clear
3:53 AM 57.0 °F 53.1 °F 87% 30.22 in 10.0 mi NNE 5.8 mph - N/A   Clear
4:53 AM 57.9 °F 52.0 °F 81% 30.22 in 10.0 mi North 5.8 mph - N/A   Clear
5:53 AM 57.0 °F 51.1 °F 81% 30.22 in 10.0 mi North 6.9 mph - N/A   Clear
6:53 AM 55.9 °F 51.1 °F 84% 30.23 in 10.0 mi North 3.5 mph - N/A   Clear
7:53 AM 59.0 °F 52.0 °F 78% 30.25 in 10.0 mi North 6.9 mph - N/A   Clear
9:53 AM 71.1 °F 55.0 °F 57% 30.26 in 10.0 mi NNE 10.4 mph - N/A   Clear
10:53 AM 73.9 °F 55.9 °F 53% 30.25 in 10.0 mi NNE 15.0 mph 20.7 mph N/A   Clear
11:53 AM 75.0 °F 55.9 °F 51% 30.23 in 10.0 mi NNE 11.5 mph 19.6 mph N/A   Clear
12:53 PM 77.0 °F 55.9 °F 48% 30.21 in 10.0 mi NNE 12.7 mph - N/A   Partly Cloudy
1:53 PM 77.0 °F 55.0 °F 47% 30.19 in 10.0 mi NNE 12.7 mph - N/A   Partly Cloudy
2:53 PM 77.0 °F 55.0 °F 47% 30.18 in 10.0 mi NE 12.7 mph 18.4 mph N/A   Partly Cloudy
3:53 PM 75.9 °F 55.0 °F 48% 30.19 in 10.0 mi NE 11.5 mph 19.6 mph N/A   Partly Cloudy
4:53 PM 72.0 °F 54.0 °F 53% 30.19 in 10.0 mi ENE 10.4 mph - N/A   Clear
5:53 PM 68.0 °F 55.0 °F 63% 30.20 in 10.0 mi NE 10.4 mph - N/A   Clear
6:53 PM 64.9 °F 55.9 °F 73% 30.22 in 10.0 mi NE 12.7 mph - N/A   Clear
7:53 PM 63.0 °F 55.9 °F 78% 30.23 in 10.0 mi NE 15.0 mph - N/A   Clear
9:53 PM 60.1 °F 54.0 °F 80% 30.22 in 10.0 mi North 9.2 mph - N/A   Clear
10:53 PM 57.9 °F 53.1 °F 84% 30.22 in 10.0 mi North 8.1 mph - N/A   Clear
11:53 PM 55.9 °F 52.0 °F 87% 30.21 in 10.0 mi North 6.9 mph - N/A   Clear